Starlink 30393

operational
NORAD ID: 57866 Int'l Des: 2023-144 Owner: SPXS Country: US Constellation: starlink
LEOCIRCULAR

About Starlink 30393

Description loading...

Live Position

Loading 3D Globe...

Upcoming Passes

Altitude History

Altitude vs Time

uPlot chart will show altitude changes over time

Two-Line Element Set

1 57866U 23144C 25353.71003941 .00000654 00000-0 63473-4 0 9991
2 57866 43.0040 1.7197 0001381 276.0994 83.9691 15.02535692125541
Epoch: Dec 19, 2025 • Age: 17 hours

Current Status

Altitude 560.8 km
Velocity 7.58 km/s
Sub-Earth Point -12.48°S, 97.21°E
Launch Date Sep 16, 2023
Age 2.2 years
Type internet

Technical Details

Classification Payload
Mass 730.00 kg
Dry Mass 700.00 kg
Total Mass 730.00 kg
Length 0.30 m
Diameter 4.10 m
Span 29.00 m
Shape Box + pan
Manufacturer SPXS
Bus Type Starlink V2M
Phase Status In Orbit
Owner/State SPXS/US

Large Constellations

Loading constellations...